• En España
  • Lista de países
  • Para 7 días
  • Temperatura del agua
  • Mapa Satelital
  • El tiempo en el mapa
  • Informadores
  • user-avatar
    Iniciar sesión

    Tiempo cada hora Porto Salvo

    Hoy, 24 Noviembre, Viernes

    Tiempo Temperatura Precipitaciones Viento Presión Humedad
    00:00 +16°C° 0 mm 3 mps 754 mmHg 95%
    01:00 +15°C° 0 mm 4 mps 754 mmHg 96%
    02:00 +15°C° 0 mm 4 mps 754 mmHg 96%
    03:00 +15°C° 0,3 mm 4 mps 754 mmHg 96%
    04:00 +15°C° 0,3 mm 4 mps 754 mmHg 95%
    05:00 +15°C° 0 mm 4 mps 754 mmHg 96%
    06:00 +15°C° 0,4 mm 4 mps 754 mmHg 93%
    07:00 +16°C° 0,4 mm 5 mps 754 mmHg 90%
    08:00 +16°C° 0,4 mm 5 mps 754 mmHg 87%
    09:00 +19°C° 0,2 mm 5 mps 754 mmHg 78%
    10:00 +20°C° 0,2 mm 6 mps 754 mmHg 69%
    11:00 +22°C° 0,2 mm 6 mps 754 mmHg 60%
    12:00 +22°C° 0 mm 6 mps 754 mmHg 57%
    13:00 +22°C° 0 mm 6 mps 754 mmHg 55%
    14:00 +22°C° 0 mm 6 mps 754 mmHg 52%
    15:00 +21°C° 0 mm 5 mps 754 mmHg 60%
    16:00 +19°C° 0 mm 4 mps 754 mmHg 67%
    17:00 +18°C° 0 mm 4 mps 754 mmHg 75%
    18:00 +17°C° 0 mm 3 mps 754 mmHg 77%
    19:00 +17°C° 0 mm 3 mps 755 mmHg 78%
    20:00 +17°C° 0 mm 3 mps 755 mmHg 80%
    21:00 +16°C° 0 mm 2 mps 755 mmHg 80%
    22:00 +16°C° 0 mm 2 mps 755 mmHg 80%
    23:00 +15°C° 0 mm 1 mps 755 mmHg 79%

    Mañana, 25 Noviembre, Sábado

    Tiempo Temperatura Precipitaciones Viento Presión Humedad
    00:00 +15°C° 0 mm 1 mps 755 mmHg 78%
    01:00 +15°C° 0 mm 1 mps 755 mmHg 78%
    02:00 +15°C° 0 mm 1 mps 755 mmHg 77%
    03:00 +15°C° 0 mm 1 mps 755 mmHg 75%
    04:00 +15°C° 0 mm 2 mps 755 mmHg 73%
    05:00 +15°C° 0 mm 2 mps 755 mmHg 71%
    06:00 +15°C° 0 mm 2 mps 756 mmHg 70%
    07:00 +16°C° 0 mm 2 mps 756 mmHg 68%
    08:00 +16°C° 0 mm 2 mps 756 mmHg 67%
    09:00 +17°C° 0,1 mm 2 mps 757 mmHg 66%
    10:00 +17°C° 0,1 mm 2 mps 757 mmHg 65%
    11:00 +18°C° 0,1 mm 3 mps 757 mmHg 64%
    12:00 +18°C° 0 mm 2 mps 757 mmHg 64%
    13:00 +18°C° 0 mm 2 mps 757 mmHg 63%
    14:00 +19°C° 0 mm 2 mps 756 mmHg 62%
    15:00 +18°C° 0 mm 2 mps 757 mmHg 65%
    16:00 +17°C° 0 mm 2 mps 757 mmHg 68%
    17:00 +17°C° 0 mm 3 mps 757 mmHg 71%
    18:00 +16°C° 0 mm 3 mps 757 mmHg 72%
    19:00 +16°C° 0 mm 3 mps 758 mmHg 72%
    20:00 +16°C° 0 mm 3 mps 758 mmHg 73%
    21:00 +16°C° 0 mm 3 mps 758 mmHg 73%
    22:00 +16°C° 0 mm 3 mps 758 mmHg 73%
    23:00 +16°C° 0 mm 3 mps 758 mmHg 74%

    Pasado mañana, 26 Noviembre, Domingo

    Tiempo Temperatura Precipitaciones Viento Presión Humedad
    00:00 +16°C° 0 mm 3 mps 758 mmHg 73%
    01:00 +15°C° 0 mm 4 mps 758 mmHg 73%
    02:00 +14°C° 0 mm 4 mps 759 mmHg 72%
    03:00 +14°C° 0 mm 4 mps 759 mmHg 72%
    04:00 +14°C° 0 mm 4 mps 759 mmHg 72%
    05:00 +14°C° 0 mm 4 mps 759 mmHg 72%
    06:00 +15°C° 0 mm 4 mps 759 mmHg 71%
    07:00 +15°C° 0 mm 5 mps 760 mmHg 70%
    08:00 +15°C° 0 mm 5 mps 760 mmHg 69%
    09:00 +16°C° 0 mm 5 mps 760 mmHg 67%
    10:00 +17°C° 0 mm 5 mps 760 mmHg 65%
    11:00 +17°C° 0 mm 6 mps 760 mmHg 63%
    12:00 +19°C° 0 mm 5 mps 760 mmHg 61%
    13:00 +19°C° 0 mm 5 mps 760 mmHg 59%
    14:00 +20°C° 0 mm 5 mps 759 mmHg 57%
    15:00 +19°C° 0 mm 5 mps 759 mmHg 61%
    16:00 +17°C° 0 mm 5 mps 759 mmHg 66%
    17:00 +15°C° 0 mm 5 mps 760 mmHg 71%
    18:00 +15°C° 0 mm 5 mps 760 mmHg 71%
    19:00 +15°C° 0 mm 5 mps 760 mmHg 72%
    20:00 +14°C° 0 mm 5 mps 760 mmHg 72%
    21:00 +14°C° 0 mm 5 mps 760 mmHg 71%
    22:00 +14°C° 0 mm 5 mps 760 mmHg 70%
    23:00 +14°C° 0 mm 4 mps 760 mmHg 69%

    27 Noviembre, Lunes

    Tiempo Temperatura Precipitaciones Viento Presión Humedad
    00:00 +14°C° 0,1 mm 5 mps 760 mmHg 69%
    01:00 +14°C° 0,1 mm 5 mps 760 mmHg 70%
    02:00 +14°C° 0,1 mm 5 mps 759 mmHg 70%
    03:00 +14°C° 0 mm 6 mps 759 mmHg 70%
    04:00 +14°C° 0 mm 6 mps 759 mmHg 69%
    05:00 +14°C° 0 mm 6 mps 759 mmHg 69%
    06:00 +14°C° 0 mm 6 mps 759 mmHg 68%
    07:00 +14°C° 0 mm 6 mps 759 mmHg 67%
    08:00 +15°C° 0 mm 6 mps 760 mmHg 67%
    09:00 +16°C° 0 mm 6 mps 760 mmHg 66%
    10:00 +16°C° 0 mm 6 mps 759 mmHg 65%
    11:00 +17°C° 0 mm 6 mps 759 mmHg 64%
    12:00 +17°C° 0 mm 5 mps 759 mmHg 64%
    13:00 +17°C° 0 mm 5 mps 759 mmHg 64%
    14:00 +19°C° 0 mm 4 mps 758 mmHg 64%
    15:00 +18°C° 0,3 mm 3 mps 758 mmHg 67%
    16:00 +17°C° 0,3 mm 3 mps 758 mmHg 71%
    17:00 +16°C° 0,3 mm 2 mps 758 mmHg 74%
    18:00 +16°C° 0,5 mm 3 mps 758 mmHg 77%
    19:00 +15°C° 0,5 mm 4 mps 758 mmHg 79%
    20:00 +15°C° 0,5 mm 4 mps 758 mmHg 82%
    21:00 +14°C° 0 mm 5 mps 758 mmHg 83%
    22:00 +14°C° 0 mm 5 mps 757 mmHg 84%
    23:00 +14°C° 0 mm 5 mps 757 mmHg 85%

    28 Noviembre, Martes

    Tiempo Temperatura Precipitaciones Viento Presión Humedad
    00:00 +14°C° 0 mm 5 mps 756 mmHg 84%
    01:00 +14°C° 0 mm 5 mps 756 mmHg 84%
    02:00 +14°C° 0 mm 5 mps 755 mmHg 84%
    03:00 +14°C° 0,6 mm 5 mps 755 mmHg 86%
    04:00 +14°C° 0,6 mm 5 mps 755 mmHg 88%
    05:00 +13°C° 0,6 mm 6 mps 754 mmHg 90%
    06:00 +14°C° 0,4 mm 6 mps 754 mmHg 90%
    07:00 +14°C° 0,4 mm 6 mps 754 mmHg 90%
    08:00 +14°C° 0,4 mm 6 mps 754 mmHg 90%
    09:00 +15°C° 0,1 mm 7 mps 753 mmHg 86%
    10:00 +16°C° 0,1 mm 7 mps 753 mmHg 83%
    11:00 +17°C° 0,1 mm 7 mps 752 mmHg 79%
    12:00 +17°C° 0,4 mm 6 mps 752 mmHg 78%
    13:00 +19°C° 0,4 mm 6 mps 751 mmHg 77%
    14:00 +19°C° 0,4 mm 5 mps 750 mmHg 77%
    15:00 +19°C° 1,6 mm 5 mps 750 mmHg 81%
    16:00 +18°C° 1,6 mm 4 mps 750 mmHg 85%
    17:00 +17°C° 1,6 mm 4 mps 749 mmHg 89%
    18:00 +17°C° 0,7 mm 3 mps 749 mmHg 91%
    19:00 +16°C° 0,7 mm 3 mps 749 mmHg 93%
    20:00 +16°C° 0,7 mm 3 mps 749 mmHg 95%
    21:00 +16°C° 0,3 mm 3 mps 749 mmHg 95%
    22:00 +16°C° 0,3 mm 3 mps 749 mmHg 95%
    23:00 +16°C° 0,3 mm 3 mps 748 mmHg 96%

    29 Noviembre, Miércoles

    Tiempo Temperatura Precipitaciones Viento Presión Humedad
    00:00 +14°C° 0,2 mm 4 mps 748 mmHg 95%
    01:00 +14°C° 0,2 mm 4 mps 748 mmHg 95%
    02:00 +14°C° 0,2 mm 5 mps 748 mmHg 95%
    03:00 +14°C° 0 mm 5 mps 748 mmHg 94%
    04:00 +13°C° 0 mm 5 mps 747 mmHg 94%
    05:00 +13°C° 0 mm 5 mps 747 mmHg 94%
    06:00 +13°C° 0 mm 6 mps 748 mmHg 91%
    07:00 +13°C° 0 mm 6 mps 748 mmHg 88%
    08:00 +13°C° 0 mm 6 mps 749 mmHg 86%
    09:00 +15°C° 0 mm 6 mps 749 mmHg 79%
    10:00 +16°C° 0 mm 5 mps 749 mmHg 73%
    11:00 +17°C° 0 mm 5 mps 749 mmHg 66%
    12:00 +17°C° 0 mm 5 mps 749 mmHg 62%
    13:00 +17°C° 0 mm 5 mps 749 mmHg 57%
    14:00 +17°C° 0 mm 5 mps 749 mmHg 52%
    15:00 +16°C° 0 mm 6 mps 749 mmHg 53%
    16:00 +15°C° 0 mm 6 mps 750 mmHg 54%
    17:00 +13°C° 0 mm 6 mps 750 mmHg 56%
    18:00 +11°C° 0 mm 6 mps 751 mmHg 56%
    19:00 +11°C° 0 mm 6 mps 751 mmHg 56%
    20:00 +10°C° 0 mm 6 mps 752 mmHg 56%
    21:00 +9°C° 0 mm 6 mps 752 mmHg 57%
    22:00 +8°C° 0 mm 6 mps 752 mmHg 57%
    23:00 +8°C° 0 mm 5 mps 753 mmHg 58%
    Mostrar más